HELLAS-SAT 4 & SGS-1

Last updated on Sun Jun 21 2026 00:03:07 GMT+0000 (Coordinated Universal Time)

1 44034U 19007A 26171.25717021 .00000148 00000+0 00000+0 0 9995 2 44034 0.0753 127.6682 0004983 12.3910 260.0061 1.00267834 27391
UTC large
Height (km)
Speed (km/s)
/
Latitude / Longitude
Inclination (degrees)
Orbital Period (minutes)
Azimuth
Elevation
Range (km)
Doppler Factor

Next 0 passes for location: London (51.5072 / 0.1276)

No passes found over London.
HELLAS-SAT 4 & SGS-1